This is the latest recevied weather packets stored in our database for station/object VK6WB. If no packets are shown the sender has not sent any weather packets the latest 10 day(s).
| Time | Temp. | Humidity | Pressure | Rain* | Wind** | Luminosity | Snow |
|---|---|---|---|---|---|---|---|
| 1778136604 | 23.33° C | 32% | 1023.3 hPa | 0 mm | - | 375 W/m² | - |
| 1778136004 | 23.33° C | 31% | 1023.4 hPa | 0 mm | - | 221 W/m² | - |
| 1778135405 | 23.33° C | 32% | 1023.3 hPa | 0 mm | - | 375 W/m² | - |
| 1778134804 | 22.78° C | 34% | 1023.4 hPa | 0 mm | - | 375 W/m² | - |
| 1778134204 | 22.78° C | 35% | 1023.4 hPa | 0 mm | - | 375 W/m² | - |
| 1778133604 | 22.78° C | 34% | 1023.6 hPa | 0 mm | - | 34 W/m² | - |
| 1778133004 | 22.78° C | 32% | 1023.5 hPa | 0 mm | - | 34 W/m² | - |
| 1778132404 | 22.78° C | 33% | 1023.7 hPa | 0 mm | - | 34 W/m² | - |
| 1778131805 | 22.22° C | 35% | 1023.9 hPa | 0 mm | - | 34 W/m² | - |
| 1778131204 | 22.22° C | 35% | 1023.9 hPa | 0 mm | - | 34 W/m² | - |
| 1778130604 | 22.22° C | 35% | 1024 hPa | 0 mm | - | 34 W/m² | - |
| 1778130005 | 22.22° C | 35% | 1024.3 hPa | 0 mm | - | 34 W/m² | - |
| 1778129404 | 21.67° C | 37% | 1024.5 hPa | 0 mm | - | 34 W/m² | - |
| 1778128805 | 21.67° C | 38% | 1024.7 hPa | 0 mm | - | 34 W/m² | - |
| 1778128205 | 21.11° C | 38% | 1024.9 hPa | 0 mm | - | 34 W/m² | - |
| 1778127604 | 20.56° C | 39% | 1025 hPa | 0 mm | - | 34 W/m² | - |
| 1778127004 | 20.56° C | 38% | 1025.3 hPa | 0 mm | - | 34 W/m² | - |
| 1778126405 | 20.56° C | 38% | 1025.5 hPa | 0 mm | - | 34 W/m² | - |
| 1778125805 | 20.56° C | 38% | 1025.6 hPa | 0 mm | - | 34 W/m² | - |
| 1778125204 | 20.56° C | 38% | 1025.9 hPa | 0 mm | - | 34 W/m² | - |
| 1778124604 | 20.56° C | 37% | 1026.1 hPa | 0 mm | - | 34 W/m² | - |
| 1778124004 | 20.56° C | 35% | 1026.2 hPa | 0 mm | - | 34 W/m² | - |
| 1778123404 | 20.56° C | 37% | 1026.2 hPa | 0 mm | - | 34 W/m² | - |
| 1778122805 | 20° C | 35% | 1026.3 hPa | 0 mm | - | 34 W/m² | - |
| 1778122204 | 20.56° C | 34% | 1026.4 hPa | 0 mm | - | 34 W/m² | - |
* Rain latest hour (hover to see other rain measurements)
** Current wind speed in m/s (hover to see current wind gust speed)